This demonstration page uses our WeatherBlox Daily Observations layout. Learn more.

38.89511, -77.03637

Hourly Observations for August 28, 2015

Temp ( °F °C ) Dew Point ( °F °C ) Humidity (%) Winds ( mph kmh ) Pressure ( in mb ) Visibility ( mi km ) Precip ( " mm )
12:52 am 00:52 Mostly Clear 72 22 59 15 65 65 Calm 30.18 1022 10 16.09344 0 0
1:52 am 01:52 Partly Cloudy 68 20 61 16 78 78 NNW 3 6 30.18 1022 10 16.09344 0 0
2:52 am 02:52 Mostly Cloudy 68 20 61 16 78 78 N 3 6 30.15 1021 10 16.09344 0 0
3:52 am 03:52 Mostly Clear 68 20 61 16 78 78 NE 3 6 30.15 1021 10 16.09344 0 0
4:52 am 04:52 Mostly Clear 64 18 59 15 83 83 NNW 6 9 30.15 1021 10 16.09344 0 0
5:52 am 05:52 Mostly Clear 66 19 59 15 78 78 Calm 30.15 1021 10 16.09344 0 0
6:52 am 06:52 Partly Cloudy 66 19 61 16 83 83 ENE 5 7 30.18 1022 10 16.09344 0 0
7:52 am 07:52 Partly Cloudy 70 21 61 16 73 73 Calm 30.18 1022 10 16.09344 0 0
8:52 am 08:52 Mostly Sunny 70 21 59 15 69 69 Calm 30.21 1023 10 16.09344 0 0
9:52 am 09:52 Mostly Sunny 75 24 57 14 54 54 Calm 30.21 1023 10 16.09344 0 0
10:52 am 10:52 Mostly Sunny 77 25 55 13 47 47 E 3 6 30.21 1023 10 16.09344 0 0
11:52 am 11:52 Partly Cloudy 79 26 57 14 48 48 E 3 6 30.21 1023 10 16.09344 0 0
12:52 pm 12:52 Mostly Cloudy 81 27 55 13 42 42 Calm 30.21 1023 10 16.09344 0 0
1:52 pm 13:52 Mostly Cloudy 82 28 57 14 42 42 S 5 7 30.18 1022 10 16.09344 0 0
2:52 pm 14:52 Mostly Cloudy 82 28 57 14 42 42 S 7 11 30.18 1022 10 16.09344 0 0
3:52 pm 15:52 Mostly Cloudy 81 27 57 14 45 45 SSE 5 7 30.15 1021 10 16.09344 0 0
4:52 pm 16:52 Partly Cloudy 82 28 57 14 42 42 SSE 6 9 30.15 1021 10 16.09344 0 0
5:52 pm 17:52 Partly Cloudy 82 28 57 14 42 42 SSE 3 6 30.15 1021 10 16.09344 0 0
6:52 pm 18:52 Partly Cloudy 81 27 63 17 54 54 SE 13 20 30.15 1021 10 16.09344 0 0
7:52 pm 19:52 Partly Cloudy 77 25 63 17 61 61 SE 9 15 30.15 1021 10 16.09344 0 0
8:52 pm 20:52 Clear 75 24 61 16 61 61 SE 5 7 30.18 1022 10 16.09344 0 0
9:52 pm 21:52 Mostly Clear 73 23 61 16 65 65 SSE 5 7 30.21 1023 10 16.09344 0 0
10:52 pm 22:52 Partly Cloudy 73 23 61 16 65 65 S 5 7 30.21 1023 10 16.09344 0 0
11:52 pm 23:52 Mostly Cloudy 72 22 61 16 69 69 SSE 3 6 30.21 1023 10 16.09344 0 0

Powered by AerisWeather